GFSCGP_sfc_temp_273.txt.gz
Temp
46 42 37 42 42 41 40 36 35 41 48 41 42 42 47 46 46 45 46 48 48 49 52 54 53 52 52 53 53 54 54 57 58 59 60 61 63 65 66 63 63 61 62 63
37 37 44 43 43 41 39 33 33 42 45 41 39 40 47 44 44 45 45 46 47 48 48 48 48 49 49 49 50 52 53 55 57 58 60 63 65 67 67 65 65 64 60 60
34 43 43 40 40 37 38 35 35 35 39 42 38 39 40 44 44 46 47 48 48 46 44 44 45 46 47 47 47 47 48 50 55 57 59 61 63 64 63 62 63 65 62 60
36 44 39 39 36 39 29 44 39 33 28 29 38 27 41 44 41 42 44 45 45 44 44 43 43 42 42 43 45 43 44 48 54 56 56 57 59 59 63 63 64 64 64 61
37 39 38 33 39 40 35 41 37 33 27 27 31 27 39 40 38 38 41 42 43 43 42 41 41 40 41 43 41 40 44 46 52 54 56 58 58 61 63 64 61 62 63 61
35 42 39 41 42 41 41 36 36 32 29 25 24 27 32 34 31 36 39 40 40 40 40 40 41 41 41 42 40 38 41 45 54 55 55 58 58 59 59 59 59 60 59 60
37 34 40 40 36 42 36 31 27 25 25 25 25 27 31 33 37 37 37 38 39 38 37 36 35 37 37 38 38 37 40 43 50 56 57 58 59 60 59 59 58 58 59 58
29 30 32 39 35 30 29 28 24 16 20 23 29 22 34 35 40 40 40 38 37 34 34 34 35 35 36 37 37 36 38 40 44 48 52 53 58 58 59 59 59 58 57 58
30 31 38 37 38 35 28 28 32 22 24 17 29 32 38 36 33 34 35 34 31 31 31 32 33 34 35 35 36 35 37 39 41 44 47 50 50 53 54 56 57 56 56 55
29 26 31 33 37 35 30 33 24 25 17 16 26 27 28 26 26 29 30 28 29 30 30 30 31 32 33 34 34 34 36 37 40 41 44 45 45 47 48 52 52 51 52 51
31 26 30 33 29 30 29 28 27 25 25 19 18 26 29 26 27 26 28 29 28 27 28 28 29 31 32 34 33 34 35 35 37 39 40 41 42 44 46 47 48 48 47 46
34 29 24 31 37 38 34 29 30 23 21 25 23 23 32 30 30 30 28 28 29 29 28 28 29 30 30 32 33 33 34 34 35 37 38 39 40 41 42 43 44 45 42 43
35 27 23 29 30 33 28 32 31 29 27 21 19 27 32 32 31 31 29 29 28 28 28 28 28 28 29 30 32 32 33 33 35 36 36 36 37 38 38 39 41 42 40 41
37 30 25 26 29 28 26 31 32 28 21 25 26 27 31 31 29 29 29 29 28 28 27 27 26 27 28 28 30 30 31 32 33 33 33 33 33 35 36 37 39 39 39 39
33 22 27 28 28 28 26 23 25 23 24 21 27 22 28 30 30 29 31 30 28 28 26 26 25 25 26 26 28 29 30 31 31 32 31 32 32 33 34 34 35 36 37 36
33 24 20 19 29 28 23 27 27 22 24 23 24 21 32 32 32 30 31 28 27 26 26 25 25 25 24 24 26 27 28 29 31 30 30 31 32 32 32 33 33 33 34 34
26 25 21 21 22 20 20 24 27 29 28 26 20 31 30 28 29 30 29 28 26 26 25 24 24 23 23 23 26 25 27 29 29 29 29 30 30 31 31 31 32 32 33 32
21 21 21 19 19 19 32 36 34 29 32 29 29 28 29 29 31 31 31 27 27 25 24 23 22 22 23 23 25 26 26 27 27 28 28 29 30 30 30 30 30 30 32 31
31 26 21 17 19 27 36 33 31 30 35 42 33 32 31 31 32 33 32 31 28 27 25 24 24 23 23 23 25 25 24 25 26 26 27 28 29 29 29 29 29 30 30 31
26 27 22 15 15 18 36 36 38 38 28 41 41 39 36 33 30 37 35 32 31 31 29 28 28 26 24 24 27 25 22 22 23 25 26 28 29 29 29 29 30 30 31 32
18 19 16 18 17 24 38 36 38 26 35 39 41 40 37 34 38 36 34 32 31 30 29 29 29 24 21 22 25 24 22 19 22 26 27 28 29 29 30 30 31 31 31 31
19 16 13 19 16 15 35 32 32 39 36 38 40 39 38 38 35 35 35 33 31 30 28 27 26 24 22 21 21 21 19 19 22 25 26 27 28 30 30 30 31 32 31 30
20 28 24 24 26 35 36 40 42 40 40 37 39 38 39 35 33 34 33 32 30 29 27 24 23 23 21 19 18 19 17 19 21 23 24 27 28 29 30 30 30 31 32 30
24 29 26 24 33 32 35 38 38 39 38 38 40 38 39 34 32 29 28 28 26 24 22 20 19 20 19 17 16 14 16 17 19 21 23 26 28 28 29 30 30 30 30 28
29 27 26 25 31 32 33 35 38 37 35 32 32 34 35 35 31 30 28 27 26 24 20 18 17 17 16 15 15 13 13 15 20 21 22 25 28 29 28 28 28 27 28 29
28 33 29 32 43 41 41 35 35 34 32 32 30 27 30 32 31 30 28 28 26 23 22 19 19 18 18 16 14 13 12 15 17 22 22 23 27 28 29 28 26 30 29 29

GFSCGP_sfc_temp_276.txt.gz
Temp
42 35 31 37 37 38 37 32 29 36 44 38 37 38 41 45 41 39 38 41 42 44 48 49 49 47 47 47 47 48 48 50 51 50 50 51 53 56 56 55 57 58 60 61
34 31 42 43 42 38 34 29 27 36 43 37 34 34 41 44 41 39 38 39 41 43 45 46 45 45 44 43 44 44 45 46 46 47 49 52 53 56 58 57 57 58 57 58
29 40 44 40 35 32 32 28 27 29 35 35 33 28 36 41 42 42 42 42 43 42 41 41 42 41 41 40 41 44 45 44 45 47 48 51 53 55 55 55 55 57 58 57
32 43 39 34 32 35 22 39 35 30 21 15 32 13 30 36 37 40 40 39 40 39 40 40 40 39 39 41 43 43 42 42 44 47 47 48 49 50 54 54 54 56 59 57
31 33 32 29 36 38 30 38 33 31 18 19 23 14 27 37 33 34 36 39 39 38 38 36 37 38 38 40 40 41 41 40 43 46 47 48 48 51 54 54 54 55 56 57
32 40 35 37 40 40 40 31 31 28 19 14 16 15 20 25 28 32 36 36 37 36 35 35 36 37 36 38 38 39 38 38 41 45 49 49 49 50 51 51 51 52 54 54
32 31 37 39 32 37 31 21 13 11 11 13 16 17 22 28 33 33 32 34 34 34 32 32 31 33 34 35 36 36 36 36 39 43 46 48 49 51 51 51 51 51 52 52
18 19 26 37 31 24 26 19 11 1 9 15 17 12 24 33 35 34 34 34 33 31 31 30 31 31 31 33 34 34 34 35 38 41 43 46 48 48 49 50 51 51 51 51
20 22 34 35 36 32 25 19 26 11 12 12 15 23 29 30 24 30 30 30 28 28 29 29 30 30 31 32 32 32 33 35 37 39 41 43 45 46 46 46 50 49 50 51
25 16 27 31 34 31 25 29 13 14 6 4 13 13 18 15 16 22 25 25 26 28 28 28 29 29 31 32 32 33 33 34 35 38 39 41 42 44 45 46 47 49 50 48
27 19 22 29 19 21 22 17 17 16 18 11 8 13 20 16 16 19 21 26 24 25 26 27 28 29 31 32 32 33 33 34 35 37 38 39 40 41 43 44 45 45 46 44
30 25 14 20 35 36 29 21 24 12 9 18 18 18 24 20 19 16 20 25 27 27 28 27 27 28 29 28 30 31 32 33 34 36 37 37 39 39 40 41 42 43 42 42
30 19 10 19 24 29 21 27 27 21 22 12 11 15 20 20 17 17 19 20 26 27 27 27 26 25 26 26 27 29 31 31 33 34 35 35 35 36 37 38 40 41 40 40
35 27 16 14 15 17 17 24 26 22 9 14 19 23 30 22 19 16 19 19 22 27 27 25 25 24 25 24 25 26 29 30 32 33 33 32 33 34 35 36 37 38 38 38
29 13 22 24 23 23 23 21 21 19 22 11 23 14 27 29 28 17 19 17 22 22 24 24 23 23 23 23 24 26 27 28 30 30 30 31 32 33 34 34 35 35 35 35
30 12 15 12 25 26 20 25 23 21 20 18 22 21 30 28 15 15 17 17 18 22 21 22 23 22 21 22 23 25 25 26 28 28 28 30 31 32 32 32 33 33 33 34
22 15 8 10 19 15 12 14 18 18 18 16 11 21 16 15 14 14 15 14 16 19 18 21 20 20 21 21 22 23 24 26 27 28 28 28 29 29 30 31 32 31 32 33
16 15 11 7 10 4 22 30 24 20 22 24 22 21 16 16 16 18 15 16 15 17 14 19 20 21 21 22 22 25 24 24 25 26 27 29 29 29 30 30 30 30 31 30
28 18 8 4 2 18 27 25 24 23 24 32 28 25 22 21 25 25 23 21 19 19 17 17 20 21 21 21 23 24 23 23 24 25 26 28 29 29 29 29 29 30 30 30
26 25 14 5 -2 3 26 27 29 28 18 32 32 31 27 25 19 23 28 28 27 26 27 25 26 25 22 22 25 25 21 21 21 25 26 27 29 29 29 30 30 30 31 31
15 16 13 13 3 15 29 30 30 15 25 31 31 31 28 25 28 27 28 26 27 26 26 25 25 23 21 21 24 22 20 18 21 26 27 28 29 30 30 30 30 30 30 30
16 13 11 14 6 10 30 27 26 31 29 30 30 31 30 29 28 27 27 28 28 25 23 24 23 22 21 20 20 20 17 19 21 24 26 27 28 30 30 30 30 30 29 28
14 23 17 21 21 32 30 31 33 32 33 30 31 31 31 28 26 26 25 26 23 23 24 21 19 21 18 18 17 17 16 18 20 23 24 26 27 28 29 28 29 29 29 28
19 25 20 19 28 30 31 32 32 32 31 33 32 31 30 26 24 23 20 19 18 16 15 14 13 14 14 13 15 12 14 15 18 19 22 25 27 27 27 28 27 27 27 26
24 23 22 22 30 29 32 32 32 31 30 26 24 27 28 27 25 25 21 19 18 14 11 10 10 11 10 8 7 6 10 12 17 17 20 24 27 26 25 26 25 25 27 27
24 29 26 29 39 35 37 25 26 26 26 27 25 20 20 26 25 24 21 21 18 15 13 11 11 11 10 9 7 6 8 11 13 17 17 21 24 25 25 23 23 29 29 29

GFSCGP_sfc_temp_279.txt.gz
Temp
38 28 21 30 32 34 32 27 24 31 39 34 34 35 38 41 39 37 36 36 39 40 44 44 45 43 43 43 43 43 43 44 45 44 43 44 44 49 52 54 54 56 57 58
30 23 36 39 38 33 29 21 21 31 38 34 30 30 37 39 38 38 37 35 38 39 39 42 42 42 39 39 41 41 43 43 45 43 43 44 45 47 50 54 55 56 56 57
24 35 41 37 32 28 27 21 22 26 30 31 27 24 32 37 39 40 39 37 37 37 36 38 40 38 37 37 38 41 42 43 44 43 45 46 47 47 48 51 52 55 56 56
27 38 36 31 29 30 18 33 31 28 17 11 28 11 26 32 34 37 36 34 34 33 36 37 36 36 36 37 37 39 41 42 43 44 42 43 43 44 47 50 52 54 55 55
27 30 30 26 32 34 29 34 30 28 12 17 18 11 22 31 30 30 32 35 33 33 33 33 34 35 35 36 35 38 40 40 42 41 41 42 43 46 48 50 50 52 53 55
27 37 32 33 36 36 37 27 26 23 12 5 12 13 19 24 27 28 31 32 33 32 33 33 34 34 33 34 34 34 35 38 40 40 40 41 43 47 47 48 49 51 51 53
26 28 33 36 29 34 27 14 4 5 4 9 9 14 20 26 29 28 28 29 30 32 30 30 30 30 31 31 32 33 35 34 37 38 39 40 44 47 47 47 49 50 51 53
11 16 21 34 29 21 23 15 7 -2 3 8 8 9 21 29 31 31 30 30 30 29 29 29 29 29 29 30 31 32 32 33 36 36 37 39 44 46 47 48 47 48 48 50
12 17 31 33 34 29 20 12 24 5 2 7 9 17 28 29 22 26 27 28 26 28 28 28 29 29 29 29 30 31 31 33 35 35 36 37 41 43 44 44 45 46 50 51
22 13 21 28 32 28 22 26 11 8 -1 -2 6 5 19 16 17 20 24 22 23 25 25 27 28 28 29 29 30 31 32 31 34 35 36 37 39 41 43 44 45 46 47 48
21 14 18 27 15 16 15 12 13 12 14 3 1 10 18 18 15 16 20 22 21 21 23 25 28 28 29 29 29 29 31 31 32 33 34 36 38 40 41 42 43 44 45 44
29 21 12 17 30 32 24 17 20 10 5 11 13 17 15 16 17 16 20 21 22 17 22 26 27 28 27 26 26 27 28 30 32 33 34 36 37 38 38 39 41 42 42 42
29 14 5 16 22 27 19 24 24 16 20 13 5 12 16 9 11 16 17 21 18 19 21 26 26 25 26 25 25 26 27 28 31 32 33 34 34 35 36 37 39 40 40 40
34 25 15 13 14 11 14 21 24 19 4 9 13 19 28 27 15 15 16 16 12 13 18 22 24 24 24 24 24 25 25 27 29 30 31 32 32 33 35 36 37 38 39 38
26 14 20 21 20 16 21 20 18 16 20 11 22 11 24 28 22 26 17 7 15 14 15 18 19 22 22 22 23 24 25 26 27 29 29 30 31 33 34 34 35 35 35 35
28 10 13 9 23 23 17 23 21 19 20 18 21 21 31 31 9 11 14 6 14 8 10 14 14 19 20 20 21 23 24 24 26 27 28 29 30 31 32 32 33 33 33 33
22 13 7 5 17 13 13 14 14 14 10 13 8 19 7 13 10 10 12 9 12 8 7 13 10 15 17 20 21 22 24 25 26 26 27 29 29 29 30 31 31 31 32 32
14 14 6 4 5 2 24 26 22 20 21 17 16 18 16 16 12 13 7 13 14 7 8 11 11 10 15 15 21 24 24 24 25 26 27 28 29 29 30 30 30 30 31 30
26 16 7 3 -8 13 27 25 23 23 25 27 24 26 18 17 23 22 19 19 14 13 14 12 12 12 16 16 20 23 22 23 24 25 27 28 29 29 30 29 30 30 30 30
27 25 14 -1 -2 -1 27 28 28 28 17 31 29 29 27 25 19 21 26 26 25 25 25 24 25 22 21 21 23 24 21 22 22 24 27 29 30 30 29 29 29 30 30 30
11 13 14 14 4 9 26 30 29 14 25 31 32 30 26 25 27 28 27 26 27 26 25 24 23 21 19 20 22 21 20 19 21 25 27 28 29 30 30 30 29 29 29 29
11 9 7 8 3 6 29 28 25 31 31 31 30 30 28 28 26 26 26 27 26 25 24 23 22 21 19 19 19 19 17 18 21 24 26 27 27 29 29 29 29 29 28 27
13 19 14 18 18 29 29 31 35 32 33 32 30 31 30 28 25 25 24 24 24 24 24 20 19 19 16 16 16 16 14 17 19 21 23 24 26 27 27 27 27 27 27 26
18 22 19 18 28 29 32 34 32 33 33 33 32 31 29 27 22 22 18 20 19 17 14 12 12 14 13 12 15 11 12 15 17 19 23 24 24 24 24 25 26 25 24 23
22 23 20 18 27 30 31 31 33 33 33 26 24 27 28 26 23 24 21 19 18 16 10 9 11 10 8 7 7 5 10 11 15 18 22 25 23 22 24 24 23 24 26 24
22 27 25 29 40 36 37 35 25 28 24 26 24 19 18 25 26 23 21 21 19 16 13 10 10 9 8 7 6 5 7 10 12 15 16 22 25 24 21 21 22 29 29 30

GFSCGP_sfc_temp_285.txt.gz
Temp
35 28 23 29 31 31 29 26 24 28 34 31 29 29 35 39 34 32 32 34 36 36 40 40 40 39 39 39 39 39 39 40 40 38 38 38 38 42 42 43 45 46 47 49
28 23 33 36 34 32 28 19 19 29 32 30 28 28 34 35 34 33 33 32 35 35 36 38 37 37 36 36 37 37 38 38 38 38 39 40 42 43 43 45 45 46 46 47
24 32 38 34 31 27 27 20 19 25 29 28 24 23 28 32 33 34 34 33 32 33 33 34 36 35 34 34 35 36 36 36 37 38 39 39 42 43 42 43 44 47 47 47
27 34 34 31 29 30 18 31 30 27 17 11 25 12 24 28 31 33 33 31 31 31 33 34 34 33 33 34 35 34 35 35 36 37 36 37 36 36 40 42 44 45 48 48
27 30 30 26 32 32 28 31 28 24 8 15 14 9 21 26 27 30 31 31 31 31 31 31 31 33 33 34 32 33 33 33 34 36 37 36 36 38 40 41 42 44 46 47
27 34 32 32 33 33 32 25 23 18 8 4 8 10 18 23 27 28 29 31 31 31 31 30 31 31 32 32 31 31 31 32 34 34 36 36 36 37 37 39 38 41 43 46
26 27 32 33 28 31 26 11 5 6 2 7 2 10 20 26 29 29 30 31 30 30 28 28 27 29 30 31 31 30 30 29 31 32 35 35 36 37 36 37 37 39 45 45
11 17 21 32 29 21 20 14 8 1 3 6 5 8 20 27 30 30 30 29 29 28 29 27 28 27 29 30 30 29 29 28 29 30 32 33 35 36 36 37 37 38 45 46
13 17 30 32 32 28 19 11 21 3 -2 0 5 13 25 27 21 26 26 28 27 27 28 26 27 26 27 28 29 28 28 28 28 29 31 32 34 35 35 36 37 40 46 48
22 14 21 27 30 27 20 24 12 7 1 -4 2 -3 14 16 20 21 23 24 25 25 25 24 24 25 27 28 28 28 28 27 27 28 30 33 34 35 35 35 36 40 44 45
19 14 18 27 16 15 20 10 12 10 12 2 -2 8 14 18 17 18 20 23 22 22 21 21 21 23 25 27 27 27 28 27 27 28 29 31 32 34 35 34 37 40 41 43
28 21 10 18 25 27 22 14 19 10 5 6 9 13 17 15 10 5 17 21 22 18 19 17 18 21 24 24 25 25 27 26 28 27 29 30 32 34 34 35 37 39 40 41
28 13 6 18 22 24 18 23 23 16 18 7 5 16 10 4 11 12 13 21 21 19 18 12 16 18 19 21 23 24 25 26 27 27 28 30 31 32 34 35 37 38 39 39
34 23 16 16 16 11 15 22 25 23 7 15 17 23 29 31 28 24 14 17 17 13 13 6 10 12 15 18 20 23 24 25 26 26 26 28 30 32 33 35 35 36 37 36
27 11 17 17 18 13 20 21 22 18 23 15 24 14 26 30 28 28 12 11 11 13 13 4 4 9 10 16 19 22 23 24 25 25 26 28 30 31 33 33 34 34 34 34
27 11 11 6 22 22 17 22 23 21 23 21 22 21 31 33 28 15 18 8 13 10 13 4 5 9 10 14 14 19 22 24 24 25 26 28 29 30 31 32 32 32 33 33
22 16 11 7 13 11 13 20 20 15 11 20 15 24 26 24 15 9 16 8 14 13 12 5 8 8 7 10 12 17 21 23 24 25 27 28 29 29 30 30 31 31 31 32
20 18 16 7 5 1 24 25 21 18 22 17 17 20 14 20 14 16 15 12 15 11 10 5 7 4 5 5 12 16 23 24 24 24 26 28 28 28 29 30 30 30 31 31
27 22 14 5 -8 13 26 24 21 21 24 26 23 27 27 15 21 24 17 14 16 12 11 7 6 6 6 9 14 15 20 24 24 24 26 28 27 27 27 28 28 29 30 30
25 25 19 -0 3 0 25 24 26 26 18 29 27 27 27 25 21 25 26 24 23 23 22 23 22 20 20 20 23 21 18 22 22 23 26 28 28 27 27 27 27 28 28 28
13 14 15 9 9 10 25 28 28 14 26 30 28 29 28 26 29 29 26 24 25 24 24 23 22 21 20 20 22 22 20 18 21 24 27 27 27 28 28 27 28 27 27 27
12 9 9 11 6 6 27 24 25 33 32 32 31 31 30 29 29 27 26 25 24 23 23 23 21 21 19 19 20 20 18 18 21 24 25 25 25 27 27 26 27 27 26 25
14 19 14 17 18 28 27 30 35 34 34 33 32 35 32 30 29 27 25 24 22 22 23 20 19 18 16 15 15 17 15 16 18 21 21 22 23 25 26 24 24 24 24 23
16 19 17 18 27 27 30 32 32 33 32 36 34 34 32 30 26 25 21 19 18 16 17 11 12 12 13 12 14 11 11 13 15 15 17 20 21 22 22 24 23 22 20 20
21 22 17 17 28 24 31 32 36 35 32 30 30 30 31 30 28 26 23 19 18 17 12 10 12 11 11 9 8 4 9 10 22 16 15 16 17 18 20 22 20 21 21 21
21 25 23 27 38 34 37 39 28 30 32 32 29 28 25 27 29 24 25 21 19 17 15 12 12 11 10 9 9 8 7 10 17 15 15 14 15 14 17 17 24 31 30 30

GFSCGP_sfc_temp_291.txt.gz
Temp
36 31 27 31 32 32 30 29 27 30 33 31 29 29 36 40 35 33 33 34 35 37 41 42 42 42 41 40 39 39 38 39 39 38 37 38 37 39 40 42 43 44 46 46
30 26 33 35 34 32 29 21 21 30 33 31 27 28 35 34 32 34 35 36 35 37 38 40 40 40 38 37 38 38 38 39 38 38 38 38 37 38 40 42 42 44 45 46
27 32 36 35 32 29 27 23 20 26 29 28 24 25 31 35 36 36 36 36 35 36 37 38 38 38 37 37 37 37 37 37 37 38 37 37 38 38 38 41 41 43 45 45
28 33 34 31 30 31 22 30 30 26 19 15 25 15 27 29 30 34 36 34 34 35 36 36 37 36 36 36 36 36 36 36 37 37 35 34 33 32 36 38 40 41 43 43
28 30 30 26 32 33 28 30 27 22 14 13 15 11 25 28 31 32 34 35 34 34 34 35 35 36 36 35 34 34 34 34 35 35 35 33 32 34 36 38 38 40 42 43
27 32 31 31 32 32 31 24 21 16 8 7 7 11 20 27 30 31 33 34 35 34 34 34 35 35 34 34 33 33 32 33 34 34 34 32 31 31 32 35 35 37 39 40
25 26 31 33 28 30 26 13 9 10 7 12 1 11 22 28 30 31 33 33 33 32 32 32 32 32 33 33 33 32 33 32 33 33 32 32 31 31 31 32 34 35 37 38
12 18 21 32 28 21 20 15 10 5 7 11 3 9 25 29 31 31 31 30 31 31 32 31 32 31 31 32 32 30 30 31 32 31 31 32 31 30 31 33 34 35 36 37
12 17 28 30 30 26 20 13 20 4 -5 1 8 14 26 29 21 27 28 29 30 32 31 29 30 29 29 28 29 28 29 30 31 31 31 30 31 31 31 33 34 35 36 38
21 14 20 26 29 26 19 23 13 8 5 2 7 1 19 20 20 18 25 22 25 27 28 28 27 28 27 27 26 27 28 28 29 30 30 31 31 31 32 33 33 35 36 38
19 15 17 26 17 17 18 14 12 12 13 6 1 14 16 18 18 20 21 23 21 22 25 24 25 24 24 25 26 27 28 28 29 30 29 30 30 31 31 32 34 35 37 37
27 20 11 17 24 27 23 17 20 15 9 5 10 15 17 18 9 7 19 24 25 20 22 20 21 21 23 23 24 24 26 26 29 29 29 29 30 30 31 32 35 36 36 38
28 14 7 18 20 23 17 22 22 17 18 7 8 19 17 8 11 18 15 23 26 20 20 17 18 18 19 20 21 22 24 26 28 27 28 28 29 31 32 33 35 35 36 36
34 23 16 16 17 13 14 19 22 20 9 15 17 24 31 32 31 28 24 22 20 18 16 13 14 11 14 15 15 18 21 25 26 26 26 27 28 30 32 33 33 34 35 35
30 14 18 17 17 13 17 16 20 17 18 16 25 17 27 32 32 31 21 25 23 21 16 15 8 10 10 11 13 15 18 23 23 23 22 25 28 30 32 32 33 34 34 33
27 16 10 8 21 21 15 20 21 21 21 18 22 21 31 32 30 24 21 20 20 20 17 15 5 8 11 9 10 13 17 20 21 20 21 24 26 28 29 31 32 32 32 32
22 14 9 9 12 10 12 16 21 14 12 19 11 22 9 23 18 17 22 16 19 20 17 15 11 11 10 7 7 10 13 17 19 19 20 24 26 26 27 29 29 30 31 31
22 17 18 9 3 7 23 23 21 17 19 18 17 19 25 23 22 19 18 19 21 18 14 14 9 3 7 3 2 7 13 16 17 20 21 24 25 25 26 27 27 28 29 29
26 23 16 12 -1 14 25 21 19 19 23 26 24 26 23 19 21 28 22 19 21 16 15 11 6 5 4 6 8 8 14 13 17 21 22 25 25 25 26 26 26 28 28 29
25 27 22 5 2 3 22 23 25 26 18 29 27 29 27 24 25 28 31 28 28 26 23 23 21 18 19 22 22 20 15 16 20 21 23 25 26 27 26 27 27 28 28 28
14 17 17 5 9 10 24 27 25 15 25 30 29 31 27 27 31 34 31 30 28 28 25 24 22 21 21 22 22 23 20 19 20 22 24 25 27 27 27 27 27 27 27 27
13 12 11 6 8 7 25 25 24 31 29 32 29 30 29 30 31 30 30 29 29 27 25 25 22 21 22 21 21 21 19 19 19 21 22 22 23 26 27 26 26 26 26 25
14 22 15 18 18 27 28 30 34 30 32 32 32 33 32 30 28 30 29 29 28 26 25 22 21 20 18 18 18 19 18 17 17 17 17 19 21 24 25 24 23 24 24 24
13 18 18 20 26 25 27 32 31 30 30 33 32 31 29 30 28 26 26 26 25 21 21 17 15 15 16 14 16 15 14 15 14 12 14 16 19 20 20 22 22 21 21 21
22 21 17 21 21 24 29 29 34 33 31 29 30 28 30 28 29 28 29 26 27 24 16 15 17 18 17 14 13 11 13 13 18 16 16 17 18 19 20 21 21 22 21 23
19 19 23 24 30 32 38 33 33 31 30 29 29 31 25 27 29 28 26 29 27 23 15 14 16 16 16 12 13 11 12 13 16 15 15 15 16 16 18 19 24 31 31 31